| time (UTC) | temp C | wind direction | speed KPH | gust KPH | rain 1hr cm | rain 24hr cm | rain mn cm | humidity % | barometer mb |
| 20260903115715 | 18 | 295 | 8.0 | 22.5 | 0.00 | 0.00 | 0.00 | 55 | 1005.2 |
| 20260903115215 | 18 | 286 | 14.5 | 22.5 | 0.00 | 0.00 | 0.00 | 55 | 1005.3 |
| 20260903114715 | 18 | 319 | 9.7 | 20.9 | 0.00 | 0.00 | 0.00 | 56 | 1005.2 |
| 20260903114214 | 18 | 144 | 9.7 | 19.3 | 0.00 | 0.00 | 0.00 | 56 | 1005.1 |
| 20260903113715 | 18 | 306 | 9.7 | 19.3 | 0.00 | 0.00 | 0.00 | 57 | 1005.2 |
| 20260903113214 | 17 | 272 | 8.0 | 17.7 | 0.00 | 0.00 | 0.00 | 58 | 1005.2 |
| 20260903112714 | 17 | 309 | 9.7 | 19.3 | 0.00 | 0.00 | 0.00 | 57 | 1005.2 |
| 20260903112214 | 17 | 274 | 9.7 | 20.9 | 0.00 | 0.00 | 0.00 | 57 | 1005.2 |
| 20260903111714 | 17 | 288 | 11.3 | 20.9 | 0.00 | 0.00 | 0.00 | 57 | 1005.3 |
| 20260903111214 | 17 | 285 | 9.7 | 19.3 | 0.00 | 0.00 | 0.00 | 59 | 1005.5 |
| 20260903110713 | 17 | 281 | 9.7 | 16.1 | 0.00 | 0.00 | 0.00 | 58 | 1005.4 |
| 20260903110213 | 17 | 303 | 9.7 | 25.7 | 0.00 | 0.00 | 0.00 | 57 | 1005.5 |
| 20260903105714 | 17 | 237 | 9.7 | 25.7 | 0.00 | 0.00 | 0.00 | 58 | 1005.5 |
| 20260903105214 | 17 | 286 | 11.3 | 22.5 | 0.00 | 0.00 | 0.00 | 58 | 1005.5 |
| 20260903104713 | 17 | 275 | 12.9 | 25.7 | 0.00 | 0.00 | 0.00 | 59 | 1005.6 |
| 20260903104213 | 17 | 278 | 17.7 | 25.7 | 0.00 | 0.00 | 0.00 | 58 | 1005.6 |
| 20260903103713 | 17 | 271 | 8.0 | 22.5 | 0.00 | 0.00 | 0.00 | 59 | 1005.6 |
| 20260903103213 | 17 | 240 | 14.5 | 22.5 | 0.00 | 0.00 | 0.00 | 59 | 1005.7 |
| 20260903102713 | 17 | 241 | 6.4 | 20.9 | 0.00 | 0.00 | 0.00 | 59 | 1005.7 |
| 20260903102213 | 17 | 283 | 6.4 | 19.3 | 0.00 | 0.00 | 0.00 | 61 | 1005.7 |
| 20260903101713 | 16 | 278 | 6.4 | 20.9 | 0.00 | 0.00 | 0.00 | 62 | 1005.7 |
| 20260903101438 | 16 | 255 | 11.3 | 20.9 | 0.00 | 0.00 | 0.00 | 61 | 1005.7 |
| 20260903100936 | 16 | 323 | 11.3 | 22.5 | 0.00 | 0.00 | 0.00 | 63 | 1005.7 |
| 20260903100213 | 16 | 320 | 11.3 | 22.5 | 0.00 | 0.00 | 0.00 | 62 | 1005.6 |
| 20260903095712 | 16 | 275 | 8.0 | 14.5 | 0.00 | 0.00 | 0.00 | 61 | 1005.6 |
| 20260903095657 | 16 | 188 | 6.4 | 16.1 | 0.00 | 0.00 | 0.00 | 63 | 1005.7 |
| 20260903094712 | 16 | 258 | 6.4 | 17.7 | 0.00 | 0.00 | 0.00 | 63 | 1005.7 |
| 20260903094212 | 16 | 251 | 11.3 | 22.5 | 0.00 | 0.00 | 0.00 | 62 | 1005.7 |
| 20260903093712 | 16 | 234 | 12.9 | 22.5 | 0.00 | 0.00 | 0.00 | 63 | 1005.6 |
| 20260903093212 | 16 | 275 | 9.7 | 19.3 | 0.00 | 0.00 | 0.00 | 62 | 1005.7 |
| 20260903092712 | 16 | 282 | 6.4 | 19.3 | 0.00 | 0.00 | 0.00 | 63 | 1005.7 |
| 20260903092211 | 16 | 269 | 9.7 | 20.9 | 0.00 | 0.00 | 0.00 | 61 | 1005.7 |
| 20260903091711 | 16 | 299 | 9.7 | 20.9 | 0.00 | 0.00 | 0.00 | 63 | 1005.9 |
| 20260903091211 | 16 | 278 | 3.2 | 20.9 | 0.00 | 0.00 | 0.00 | 65 | 1005.8 |
| 20260903090934 | 15 | 298 | 11.3 | 20.9 | 0.00 | 0.00 | 0.00 | 62 | 1005.9 |
| 20260903090211 | 15 | 269 | 8.0 | 24.1 | 0.00 | 0.00 | 0.00 | 63 | 1005.9 |
| 20260903085711 | 15 | 289 | 12.9 | 24.1 | 0.00 | 0.00 | 0.00 | 62 | 1005.9 |
| 20260903085211 | 15 | 289 | 8.0 | 14.5 | 0.00 | 0.00 | 0.00 | 64 | 1005.8 |
| 20260903084710 | 15 | 247 | 8.0 | 16.1 | 0.00 | 0.00 | 0.00 | 65 | 1005.9 |
| 20260903084211 | 15 | 296 | 6.4 | 20.9 | 0.00 | 0.00 | 0.00 | 66 | 1006.0 |
| 20260903083710 | 15 | 298 | 11.3 | 20.9 | 0.00 | 0.00 | 0.00 | 67 | 1005.9 |
| 20260903083211 | 15 | 274 | 9.7 | 20.9 | 0.00 | 0.00 | 0.00 | 67 | 1005.9 |
| 20260903082710 | 15 | 286 | 11.3 | 22.5 | 0.00 | 0.00 | 0.00 | 67 | 1005.9 |
| 20260903082436 | 15 | 276 | 9.7 | 22.5 | 0.00 | 0.00 | 0.00 | 67 | 1006.0 |
| 20260903081710 | 15 | 309 | 12.9 | 25.7 | 0.00 | 0.00 | 0.00 | 67 | 1005.9 |
| 20260903081210 | 15 | 243 | 14.5 | 25.7 | 0.00 | 0.00 | 0.00 | 67 | 1005.8 |
| 20260903080710 | 15 | 241 | 9.7 | 17.7 | 0.00 | 0.00 | 0.00 | 69 | 1005.9 |
| 20260903080438 | 15 | 283 | 12.9 | 17.7 | 0.00 | 0.00 | 0.00 | 69 | 1005.8 |
| 20260903075710 | 15 | 254 | 9.7 | 22.5 | 0.00 | 0.00 | 0.00 | 70 | 1005.9 |
| 20260903075210 | 14 | 288 | 11.3 | 24.1 | 0.00 | 0.00 | 0.00 | 70 | 1005.9 |
| 20260903074935 | 14 | 334 | 12.9 | 24.1 | 0.00 | 0.00 | 0.00 | 71 | 1005.9 |
| 20260903074209 | 14 | 303 | 14.5 | 24.1 | 0.00 | 0.00 | 0.00 | 71 | 1005.9 |
| 20260903073709 | 14 | 282 | 11.3 | 30.6 | 0.00 | 0.00 | 0.00 | 72 | 1006.0 |
| 20260903073210 | 14 | 300 | 17.7 | 30.6 | 0.00 | 0.00 | 0.00 | 71 | 1006.0 |
| 20260903072709 | 14 | 290 | 16.1 | 30.6 | 0.00 | 0.00 | 0.00 | 72 | 1005.9 |
| 20260903072209 | 14 | 351 | 14.5 | 25.7 | 0.00 | 0.00 | 0.00 | 74 | 1005.9 |
| 20260903071939 | 14 | 288 | 14.5 | 25.7 | 0.00 | 0.00 | 0.00 | 74 | 1005.9 |
| 20260903071209 | 14 | 310 | 14.5 | 30.6 | 0.00 | 0.00 | 0.00 | 75 | 1005.8 |
| 20260903070708 | 14 | 238 | 11.3 | 30.6 | 0.00 | 0.00 | 0.00 | 75 | 1005.9 |
| 20260903070430 | 14 | 286 | 12.9 | 25.7 | 0.00 | 0.00 | 0.00 | 76 | 1006.0 |
| 20260903065708 | 13 | 240 | 11.3 | 25.7 | 0.00 | 0.00 | 0.00 | 76 | 1006.0 |
| 20260903065207 | 13 | 302 | 12.9 | 29.0 | 0.00 | 0.00 | 0.00 | 77 | 1006.0 |
| 20260903064707 | 13 | 268 | 17.7 | 29.0 | 0.00 | 0.00 | 0.00 | 79 | 1006.1 |
| 20260903064207 | 13 | 305 | 14.5 | 25.7 | 0.00 | 0.00 | 0.00 | 79 | 1006.1 |
| 20260903063707 | 13 | 271 | 12.9 | 25.7 | 0.00 | 0.00 | 0.00 | 79 | 1006.1 |
| 20260903063207 | 13 | 285 | 8.0 | 22.5 | 0.00 | 0.00 | 0.00 | 81 | 1006.0 |
| 20260903062707 | 13 | 293 | 11.3 | 22.5 | 0.00 | 0.00 | 0.00 | 81 | 1006.0 |
| 20260903062647 | 13 | 289 | 9.7 | 22.5 | 0.00 | 0.00 | 0.00 | 82 | 1006.0 |
| 20260903061706 | 13 | 254 | 14.5 | 22.5 | 0.00 | 0.00 | 0.00 | 82 | 1006.0 |
| 20260903061426 | 12 | 292 | 8.0 | 16.1 | 0.00 | 0.00 | 0.00 | 82 | 1006.1 |
| 20260903060707 | 12 | 292 | 8.0 | 17.7 | 0.00 | 0.00 | 0.00 | 83 | 1006.1 |
| 20260903060206 | 12 | 266 | 8.0 | 17.7 | 0.00 | 0.00 | 0.00 | 83 | 1006.1 |
| 20260903055706 | 12 | 306 | 11.3 | 19.3 | 0.00 | 0.00 | 0.00 | 83 | 1006.1 |
| 20260903055207 | 12 | 278 | 6.4 | 19.3 | 0.00 | 0.00 | 0.00 | 84 | 1006.1 |
| 20260903054706 | 12 | 275 | 11.3 | 19.3 | 0.00 | 0.00 | 0.00 | 84 | 1006.0 |
| 20260903054206 | 12 | 303 | 11.3 | 16.1 | 0.00 | 0.00 | 0.00 | 84 | 1006.1 |
| 20260903053705 | 12 | 276 | 8.0 | 17.7 | 0.00 | 0.00 | 0.00 | 85 | 1006.0 |
| 20260903053205 | 12 | 299 | 9.7 | 17.7 | 0.00 | 0.00 | 0.00 | 86 | 1006.1 |
| 20260903052705 | 11 | 279 | 4.8 | 11.3 | 0.00 | 0.00 | 0.00 | 87 | 1006.1 |
| 20260903052205 | 11 | 265 | 1.6 | 11.3 | 0.00 | 0.00 | 0.00 | 87 | 1006.1 |
| 20260903051705 | 11 | 266 | 3.2 | 9.7 | 0.00 | 0.00 | 0.00 | 88 | 1006.1 |
| 20260903051204 | 11 | 296 | 4.8 | 9.7 | 0.00 | 0.00 | 0.00 | 88 | 1006.2 |
| 20260903050705 | 11 | 283 | 3.2 | 8.0 | 0.00 | 0.00 | 0.00 | 89 | 1006.1 |
| 20260903050205 | 10 | 266 | 3.2 | 8.0 | 0.00 | 0.00 | 0.00 | 90 | 1006.1 |
| 20260903045706 | 10 | 258 | 3.2 | 8.0 | 0.00 | 0.00 | 0.00 | 90 | 1006.1 |
| 20260903045205 | 10 | 247 | 3.2 | 4.8 | 0.00 | 0.00 | 0.00 | 90 | 1006.1 |
| 20260903044706 | 10 | 283 | 3.2 | 4.8 | 0.00 | 0.00 | 0.00 | 90 | 1006.1 |
| 20260903044206 | 10 | 283 | 1.6 | 4.8 | 0.00 | 0.00 | 0.00 | 90 | 1006.1 |
| 20260903043926 | 10 | 261 | 0.0 | 6.4 | 0.00 | 0.00 | 0.00 | 90 | 1006.2 |
| 20260903043205 | 10 | 303 | 3.2 | 6.4 | 0.00 | 0.00 | 0.00 | 90 | 1006.1 |
| 20260903042706 | 10 | 226 | 0.0 | 3.2 | 0.00 | 0.00 | 0.00 | 90 | 1006.3 |
| 20260903042206 | 10 | 210 | 0.0 | 3.2 | 0.00 | 0.00 | 0.00 | 90 | 1006.3 |
| 20260903041705 | 10 | 250 | 0.0 | 1.6 | 0.00 | 0.00 | 0.00 | 90 | 1006.3 |
| 20260903041205 | 10 | 250 | 0.0 | 4.8 | 0.00 | 0.00 | 0.00 | 90 | 1006.3 |
| 20260903040705 | 10 | 252 | 0.0 | 6.4 | 0.00 | 0.00 | 0.00 | 89 | 1006.4 |
| 20260903040205 | 10 | 243 | 1.6 | 6.4 | 0.00 | 0.00 | 0.00 | 89 | 1006.4 |
| 20260903035704 | 10 | 259 | 1.6 | 4.8 | 0.00 | 0.00 | 0.00 | 89 | 1006.4 |
| 20260903035205 | 10 | 282 | 0.0 | 1.6 | 0.00 | 0.00 | 0.00 | 89 | 1006.4 |
| 20260903034705 | 10 | 282 | 1.6 | 1.6 | 0.00 | 0.00 | 0.00 | 88 | 1006.5 |
| 20260903034204 | 10 | 282 | 0.0 | 1.6 | 0.00 | 0.00 | 0.00 | 88 | 1006.5 |
| 20260903033706 | 10 | 282 | 0.0 | 1.6 | 0.00 | 0.00 | 0.00 | 87 | 1006.5 |
| 20260903033428 | 10 | 282 | 0.0 | 1.6 | 0.00 | 0.00 | 0.00 | 87 | 1006.5 |
| 20260903032705 | 10 | 282 | 0.0 | 1.6 | 0.00 | 0.00 | 0.00 | 87 | 1006.5 |
| 20260903032203 | 10 | 282 | 0.0 | 1.6 | 0.00 | 0.00 | 0.00 | 86 | 1006.5 |
| 20260903031920 | 10 | 282 | 0.0 | 3.2 | 0.00 | 0.00 | 0.00 | 87 | 1006.4 |
| 20260903031411 | 10 | 282 | 0.0 | 3.2 | 0.00 | 0.00 | 0.00 | 87 | 1006.5 |
| 20260903030203 | 10 | 282 | 0.0 | 1.6 | 0.00 | 0.00 | 0.00 | 86 | 1006.5 |
| 20260903025925 | 10 | 282 | 0.0 | 0.0 | 0.00 | 0.00 | 0.00 | 86 | 1006.6 |
| 20260903025204 | 10 | 282 | 0.0 | 3.2 | 0.00 | 0.00 | 0.00 | 86 | 1006.6 |
| 20260903024704 | 10 | 282 | 0.0 | 4.8 | 0.00 | 0.00 | 0.00 | 86 | 1006.6 |
| 20260903024204 | 10 | 251 | 1.6 | 4.8 | 0.00 | 0.00 | 0.00 | 86 | 1006.7 |
| 20260903023705 | 10 | 235 | 1.6 | 3.2 | 0.00 | 0.00 | 0.00 | 86 | 1006.6 |
| 20260903023205 | 10 | 235 | 0.0 | 0.0 | 0.00 | 0.00 | 0.00 | 86 | 1006.6 |
| 20260903022701 | 10 | 235 | 0.0 | 0.0 | 0.00 | 0.00 | 0.00 | 85 | 1006.6 |
| 20260903022201 | 11 | 235 | 0.0 | 1.6 | 0.00 | 0.00 | 0.00 | 84 | 1006.6 |
| 20260903021702 | 11 | 235 | 0.0 | 3.2 | 0.00 | 0.00 | 0.00 | 84 | 1006.6 |
| 20260903021204 | 11 | 235 | 0.0 | 3.2 | 0.00 | 0.00 | 0.00 | 84 | 1006.7 |
| 20260903020703 | 11 | 266 | 0.0 | 3.2 | 0.00 | 0.00 | 0.00 | 84 | 1006.7 |
| 20260903020202 | 11 | 266 | 1.6 | 1.6 | 0.00 | 0.00 | 0.00 | 84 | 1006.7 |
| 20260903015703 | 11 | 266 | 0.0 | 3.2 | 0.00 | 0.00 | 0.00 | 83 | 1006.7 |
| 20260903015202 | 11 | 276 | 1.6 | 3.2 | 0.00 | 0.00 | 0.00 | 83 | 1006.9 |
| 20260903014702 | 11 | 278 | 1.6 | 4.8 | 0.00 | 0.00 | 0.00 | 83 | 1006.8 |
| 20260903014202 | 11 | 281 | 3.2 | 6.4 | 0.00 | 0.00 | 0.00 | 83 | 1006.9 |
| 20260903013702 | 11 | 274 | 3.2 | 6.4 | 0.00 | 0.00 | 0.00 | 83 | 1006.9 |
| 20260903013202 | 11 | 289 | 1.6 | 6.4 | 0.00 | 0.00 | 0.00 | 82 | 1006.9 |
| 20260903012923 | 11 | 272 | 3.2 | 8.0 | 0.00 | 0.00 | 0.00 | 82 | 1006.9 |
| 20260903012420 | 11 | 288 | 1.6 | 8.0 | 0.00 | 0.00 | 0.00 | 82 | 1007.0 |
| 20260903011701 | 11 | 279 | 3.2 | 6.4 | 0.00 | 0.00 | 0.00 | 82 | 1007.0 |
| 20260903011201 | 11 | 245 | 1.6 | 4.8 | 0.00 | 0.00 | 0.00 | 81 | 1007.0 |
| 20260903010920 | 11 | 276 | 0.0 | 4.8 | 0.00 | 0.00 | 0.00 | 81 | 1007.0 |
| 20260903010202 | 11 | 250 | 0.0 | 6.4 | 0.00 | 0.00 | 0.00 | 80 | 1007.0 |
| 20260903005701 | 11 | 231 | 1.6 | 9.7 | 0.00 | 0.00 | 0.00 | 80 | 1007.1 |
| 20260903005201 | 11 | 230 | 3.2 | 9.7 | 0.00 | 0.00 | 0.00 | 80 | 1007.1 |
| 20260903004701 | 11 | 241 | 1.6 | 4.8 | 0.00 | 0.00 | 0.00 | 79 | 1007.2 |
| 20260903004200 | 12 | 275 | 3.2 | 4.8 | 0.00 | 0.00 | 0.00 | 79 | 1007.2 |
| 20260903003701 | 12 | 288 | 3.2 | 4.8 | 0.00 | 0.00 | 0.00 | 79 | 1007.2 |
| 20260903003200 | 12 | 247 | 3.2 | 6.4 | 0.00 | 0.00 | 0.00 | 79 | 1007.2 |
| 20260903002700 | 12 | 264 | 3.2 | 6.4 | 0.00 | 0.00 | 0.00 | 79 | 1007.2 |
| 20260903002200 | 12 | 257 | 3.2 | 6.4 | 0.00 | 0.00 | 0.00 | 78 | 1007.2 |
| 20260903001700 | 12 | 271 | 3.2 | 8.0 | 0.00 | 0.00 | 0.00 | 78 | 1007.3 |
| 20260903001200 | 12 | 252 | 3.2 | 8.0 | 0.00 | 0.00 | 0.00 | 77 | 1007.3 |
| 20260903000700 | 12 | 272 | 1.6 | 4.8 | 0.00 | 0.00 | 0.00 | 77 | 1007.3 |
| 20260903000200 | 12 | 274 | 1.6 | 4.8 | 0.00 | 0.00 | 0.00 | 76 | 1007.3 |
| 20260902235659 | 12 | 264 | 1.6 | 11.3 | 0.00 | 0.00 | 0.00 | 76 | 1007.3 |
| 20260902235421 | 12 | 251 | 4.8 | 11.3 | 0.00 | 0.00 | 0.00 | 76 | 1007.4 |
| 20260902234700 | 13 | 276 | 1.6 | 8.0 | 0.00 | 0.00 | 0.00 | 76 | 1007.3 |
| 20260902234200 | 13 | 278 | 3.2 | 6.4 | 0.00 | 0.00 | 0.00 | 76 | 1007.3 |
| 20260902233659 | 13 | 227 | 3.2 | 8.0 | 0.00 | 0.00 | 0.00 | 75 | 1007.3 |
| 20260902233159 | 13 | 264 | 3.2 | 9.7 | 0.00 | 0.00 | 0.00 | 75 | 1007.4 |
| 20260902232659 | 13 | 257 | 4.8 | 9.7 | 0.00 | 0.00 | 0.00 | 76 | 1007.3 |
| 20260902232159 | 13 | 251 | 4.8 | 8.0 | 0.00 | 0.00 | 0.00 | 76 | 1007.3 |
| 20260902231659 | 13 | 286 | 3.2 | 9.7 | 0.00 | 0.00 | 0.00 | 75 | 1007.3 |
| 20260902231159 | 13 | 252 | 4.8 | 9.7 | 0.00 | 0.00 | 0.00 | 75 | 1007.3 |
| 20260902230658 | 13 | 275 | 3.2 | 8.0 | 0.00 | 0.00 | 0.00 | 75 | 1007.3 |
| 20260902230159 | 13 | 224 | 3.2 | 8.0 | 0.00 | 0.00 | 0.00 | 76 | 1007.3 |
| 20260902225920 | 13 | 245 | 3.2 | 8.0 | 0.00 | 0.00 | 0.00 | 75 | 1007.3 |
| 20260902225158 | 13 | 285 | 3.2 | 4.8 | 0.00 | 0.00 | 0.00 | 75 | 1007.4 |
| 20260902224918 | 13 | 269 | 0.0 | 9.7 | 0.00 | 0.00 | 0.00 | 74 | 1007.3 |
| 20260902224419 | 13 | 259 | 4.8 | 14.5 | 0.00 | 0.00 | 0.00 | 74 | 1007.3 |
| 20260902223657 | 13 | 262 | 3.2 | 14.5 | 0.00 | 0.00 | 0.00 | 74 | 1007.3 |
| 20260902223158 | 13 | 266 | 4.8 | 17.7 | 0.00 | 0.00 | 0.00 | 74 | 1007.3 |
| 20260902222659 | 13 | 265 | 3.2 | 17.7 | 0.00 | 0.00 | 0.00 | 73 | 1007.3 |
| 20260902222158 | 13 | 258 | 3.2 | 14.5 | 0.00 | 0.00 | 0.00 | 73 | 1007.4 |
| 20260902221657 | 13 | 220 | 4.8 | 14.5 | 0.00 | 0.00 | 0.00 | 73 | 1007.4 |
| 20260902221427 | 13 | 258 | 6.4 | 11.3 | 0.00 | 0.00 | 0.00 | 72 | 1007.3 |
| 20260902220917 | 13 | 283 | 3.2 | 6.4 | 0.00 | 0.00 | 0.00 | 72 | 1007.4 |
| 20260902220157 | 13 | 295 | 3.2 | 8.0 | 0.00 | 0.00 | 0.00 | 72 | 1007.4 |
| 20260902215657 | 13 | 283 | 1.6 | 8.0 | 0.00 | 0.00 | 0.00 | 71 | 1007.4 |
| 20260902215157 | 13 | 275 | 1.6 | 14.5 | 0.00 | 0.00 | 0.00 | 71 | 1007.4 |
| 20260902214658 | 13 | 259 | 3.2 | 14.5 | 0.00 | 0.00 | 0.00 | 72 | 1007.4 |
| 20260902214413 | 13 | 272 | 4.8 | 9.7 | 0.00 | 0.00 | 0.00 | 72 | 1007.4 |
| 20260902213657 | 13 | 295 | 3.2 | 11.3 | 0.00 | 0.00 | 0.00 | 72 | 1007.5 |
| 20260902213156 | 13 | 288 | 6.4 | 14.5 | 0.00 | 0.00 | 0.00 | 72 | 1007.4 |
| 20260902212656 | 13 | 292 | 6.4 | 14.5 | 0.00 | 0.00 | 0.00 | 72 | 1007.5 |
| 20260902212156 | 13 | 290 | 4.8 | 11.3 | 0.00 | 0.00 | 0.00 | 73 | 1007.5 |
| 20260902211924 | 12 | 316 | 3.2 | 8.0 | 0.00 | 0.00 | 0.00 | 74 | 1007.5 |
| 20260902211158 | 12 | 259 | 3.2 | 6.4 | 0.00 | 0.00 | 0.00 | 74 | 1007.4 |
| 20260902210658 | 12 | 266 | 3.2 | 6.4 | 0.00 | 0.00 | 0.00 | 74 | 1007.5 |
| 20260902210156 | 12 | 303 | 1.6 | 4.8 | 0.00 | 0.00 | 0.00 | 74 | 1007.5 |
| 20260902205656 | 12 | 264 | 1.6 | 3.2 | 0.00 | 0.00 | 0.00 | 74 | 1007.5 |
| 20260902205155 | 12 | 264 | 1.6 | 3.2 | 0.00 | 0.00 | 0.00 | 74 | 1007.4 |
| 20260902204655 | 13 | 278 | 0.0 | 1.6 | 0.00 | 0.00 | 0.00 | 75 | 1007.4 |
| 20260902204155 | 13 | 278 | 0.0 | 1.6 | 0.00 | 0.00 | 0.00 | 76 | 1007.4 |
| 20260902203916 | 13 | 278 | 0.0 | 1.6 | 0.00 | 0.00 | 0.00 | 76 | 1007.4 |
| 20260902203416 | 13 | 278 | 0.0 | 3.2 | 0.00 | 0.00 | 0.00 | 74 | 1007.5 |
| 20260902202655 | 13 | 278 | 0.0 | 3.2 | 0.00 | 0.00 | 0.00 | 72 | 1007.4 |
| 20260902202414 | 13 | 278 | 0.0 | 0.0 | 0.00 | 0.00 | 0.00 | 72 | 1007.4 |
| 20260902201655 | 13 | 278 | 0.0 | 0.0 | 0.00 | 0.00 | 0.00 | 71 | 1007.4 |
| 20260902201155 | 13 | 278 | 0.0 | 0.0 | 0.00 | 0.00 | 0.00 | 71 | 1007.4 |
| 20260902200655 | 13 | 278 | 0.0 | 0.0 | 0.00 | 0.00 | 0.00 | 70 | 1007.5 |
| 20260902200154 | 13 | 278 | 0.0 | 1.6 | 0.00 | 0.00 | 0.00 | 69 | 1007.4 |
| 20260902195655 | 13 | 278 | 0.0 | 1.6 | 0.00 | 0.00 | 0.00 | 69 | 1007.5 |
| 20260902195154 | 14 | 278 | 0.0 | 0.0 | 0.00 | 0.00 | 0.00 | 67 | 1007.4 |
| 20260902194655 | 14 | 278 | 0.0 | 0.0 | 0.00 | 0.00 | 0.00 | 67 | 1007.4 |
| 20260902194154 | 14 | 278 | 0.0 | 0.0 | 0.00 | 0.00 | 0.00 | 66 | 1007.4 |
| 20260902193654 | 15 | 278 | 0.0 | 1.6 | 0.00 | 0.00 | 0.00 | 65 | 1007.4 |
| 20260902193154 | 15 | 278 | 0.0 | 4.8 | 0.00 | 0.00 | 0.00 | 65 | 1007.4 |
| 20260902192654 | 15 | 278 | 1.6 | 4.8 | 0.00 | 0.00 | 0.00 | 64 | 1007.4 |
| 20260902192154 | 15 | 281 | 1.6 | 3.2 | 0.00 | 0.00 | 0.00 | 64 | 1007.4 |
| 20260902191654 | 15 | 281 | 1.6 | 4.8 | 0.00 | 0.00 | 0.00 | 63 | 1007.4 |
| 20260902191153 | 15 | 274 | 3.2 | 4.8 | 0.00 | 0.00 | 0.00 | 63 | 1007.4 |
| 20260902191131 | 15 | 282 | 1.6 | 4.8 | 0.00 | 0.00 | 0.00 | 62 | 1007.4 |
| 20260902190416 | 16 | 254 | 3.2 | 4.8 | 0.00 | 0.00 | 0.00 | 62 | 1007.4 |
| 20260902185653 | 16 | 254 | 1.6 | 3.2 | 0.00 | 0.00 | 0.00 | 61 | 1007.4 |
| 20260902185640 | 16 | 254 | 1.6 | 6.4 | 0.00 | 0.00 | 0.00 | 61 | 1007.5 |
| 20260902184654 | 16 | 272 | 0.0 | 6.4 | 0.00 | 0.00 | 0.00 | 61 | 1007.4 |
| 20260902184153 | 16 | 296 | 3.2 | 6.4 | 0.00 | 0.00 | 0.00 | 60 | 1007.4 |
| 20260902183909 | 16 | 285 | 3.2 | 11.3 | 0.00 | 0.00 | 0.00 | 59 | 1007.4 |
| 20260902183152 | 16 | 300 | 6.4 | 11.3 | 0.00 | 0.00 | 0.00 | 58 | 1007.4 |
| 20260902182653 | 17 | 271 | 6.4 | 11.3 | 0.00 | 0.00 | 0.00 | 58 | 1007.3 |
| 20260902182152 | 17 | 268 | 4.8 | 9.7 | 0.00 | 0.00 | 0.00 | 58 | 1007.3 |
| 20260902181653 | 17 | 298 | 3.2 | 11.3 | 0.00 | 0.00 | 0.00 | 57 | 1007.3 |
| 20260902181153 | 17 | 288 | 6.4 | 16.1 | 0.00 | 0.00 | 0.00 | 57 | 1007.3 |
| 20260902180652 | 17 | 285 | 6.4 | 16.1 | 0.00 | 0.00 | 0.00 | 56 | 1007.2 |
| 20260902180418 | 17 | 302 | 4.8 | 16.1 | 0.00 | 0.00 | 0.00 | 57 | 1007.2 |
| 20260902175654 | 17 | 288 | 8.0 | 19.3 | 0.00 | 0.00 | 0.00 | 56 | 1007.2 |
| 20260902175152 | 17 | 262 | 9.7 | 19.3 | 0.00 | 0.00 | 0.00 | 56 | 1007.2 |
| 20260902174652 | 18 | 296 | 4.8 | 16.1 | 0.00 | 0.00 | 0.00 | 57 | 1007.1 |
| 20260902174152 | 18 | 275 | 6.4 | 11.3 | 0.00 | 0.00 | 0.00 | 57 | 1007.1 |
| 20260902173652 | 18 | 310 | 4.8 | 11.3 | 0.00 | 0.00 | 0.00 | 57 | 1006.9 |
| 20260902173153 | 18 | 292 | 4.8 | 11.3 | 0.00 | 0.00 | 0.00 | 56 | 1006.9 |
| 20260902172652 | 18 | 245 | 6.4 | 11.3 | 0.00 | 0.00 | 0.00 | 55 | 1006.8 |
| 20260902172152 | 18 | 264 | 6.4 | 14.5 | 0.00 | 0.00 | 0.00 | 55 | 1006.8 |
| 20260902171652 | 19 | 279 | 6.4 | 17.7 | 0.00 | 0.00 | 0.00 | 54 | 1006.8 |
| 20260902171152 | 19 | 251 | 4.8 | 19.3 | 0.00 | 0.00 | 0.00 | 54 | 1006.7 |
| 20260902170651 | 19 | 298 | 9.7 | 22.5 | 0.00 | 0.00 | 0.00 | 54 | 1006.7 |
| 20260902170151 | 19 | 266 | 8.0 | 22.5 | 0.00 | 0.00 | 0.00 | 55 | 1006.7 |
| 20260902165911 | 20 | 258 | 8.0 | 16.1 | 0.00 | 0.00 | 0.00 | 56 | 1006.6 |
| 20260902165151 | 20 | 299 | 4.8 | 16.1 | 0.00 | 0.00 | 0.00 | 57 | 1006.6 |
| 20260902164912 | 20 | 310 | 8.0 | 20.9 | 0.00 | 0.00 | 0.00 | 56 | 1006.6 |
| 20260902164151 | 20 | 281 | 9.7 | 20.9 | 0.00 | 0.00 | 0.00 | 56 | 1006.5 |
| 20260902163651 | 20 | 288 | 9.7 | 20.9 | 0.00 | 0.00 | 0.00 | 57 | 1006.4 |
| 20260902163150 | 20 | 283 | 6.4 | 16.1 | 0.00 | 0.00 | 0.00 | 62 | 1006.4 |
| 20260902162650 | 20 | 228 | 4.8 | 16.1 | 0.00 | 0.00 | 0.00 | 64 | 1006.4 |
| 20260902162150 | 20 | 261 | 3.2 | 11.3 | 0.00 | 0.00 | 0.00 | 64 | 1006.4 |
| 20260902161650 | 20 | 261 | 1.6 | 8.0 | 0.00 | 0.00 | 0.00 | 65 | 1006.4 |
| 20260902161632 | 20 | 226 | 3.2 | 9.7 | 0.00 | 0.00 | 0.00 | 66 | 1006.4 |
| 20260902160916 | 20 | 235 | 4.8 | 9.7 | 0.00 | 0.00 | 0.00 | 66 | 1006.4 |
| 20260902160150 | 20 | 247 | 3.2 | 14.5 | 0.00 | 0.00 | 0.00 | 67 | 1006.4 |
| 20260902155650 | 20 | 241 | 6.4 | 14.5 | 0.00 | 0.00 | 0.00 | 67 | 1006.4 |
| 20260902155149 | 20 | 231 | 4.8 | 16.1 | 0.00 | 0.00 | 0.00 | 67 | 1006.4 |
| 20260902154649 | 20 | 213 | 6.4 | 16.1 | 0.00 | 0.00 | 0.00 | 68 | 1006.4 |
| 20260902154149 | 20 | 258 | 4.8 | 11.3 | 0.00 | 0.00 | 0.00 | 68 | 1006.4 |
| 20260902154135 | 20 | 247 | 3.2 | 17.7 | 0.00 | 0.00 | 0.00 | 67 | 1006.4 |
| 20260902153149 | 20 | 252 | 3.2 | 17.7 | 0.00 | 0.00 | 0.00 | 67 | 1006.5 |
| 20260902152649 | 20 | 221 | 3.2 | 14.5 | 0.00 | 0.00 | 0.00 | 67 | 1006.5 |
| 20260902152149 | 20 | 250 | 4.8 | 14.5 | 0.00 | 0.00 | 0.00 | 67 | 1006.6 |
| 20260902151913 | 20 | 276 | 4.8 | 14.5 | 0.00 | 0.00 | 0.00 | 68 | 1006.6 |
| 20260902151148 | 20 | 299 | 3.2 | 14.5 | 0.00 | 0.00 | 0.00 | 68 | 1006.7 |
| 20260902150915 | 20 | 266 | 6.4 | 14.5 | 0.00 | 0.00 | 0.00 | 68 | 1006.8 |
| 20260902150149 | 20 | 231 | 6.4 | 14.5 | 0.00 | 0.00 | 0.00 | 68 | 1006.8 |
| 20260902145648 | 20 | 275 | 8.0 | 14.5 | 0.00 | 0.00 | 0.00 | 68 | 1006.8 |
| 20260902145151 | 20 | 251 | 6.4 | 11.3 | 0.00 | 0.00 | 0.00 | 69 | 1006.8 |
| 20260902144649 | 20 | 265 | 3.2 | 17.7 | 0.00 | 0.00 | 0.00 | 69 | 1006.8 |
| 20260902144149 | 20 | 285 | 11.3 | 17.7 | 0.00 | 0.00 | 0.00 | 68 | 1006.9 |
| 20260902143915 | 21 | 271 | 6.4 | 20.9 | 0.00 | 0.00 | 0.00 | 68 | 1006.9 |
| 20260902143409 | 21 | 188 | 8.0 | 29.0 | 0.00 | 0.00 | 0.00 | 67 | 1006.9 |
| 20260902142648 | 21 | 292 | 6.4 | 29.0 | 0.00 | 0.00 | 0.00 | 67 | 1006.9 |
| 20260902142148 | 20 | 221 | 4.8 | 14.5 | 0.00 | 0.00 | 0.00 | 68 | 1006.9 |
| 20260902141648 | 20 | 274 | 8.0 | 22.5 | 0.00 | 0.00 | 0.00 | 67 | 1006.9 |
| 20260902141148 | 20 | 257 | 6.4 | 22.5 | 0.00 | 0.00 | 0.00 | 67 | 1006.9 |
| 20260902140647 | 20 | 262 | 4.8 | 14.5 | 0.00 | 0.00 | 0.00 | 69 | 1007.1 |
| 20260902140147 | 20 | 206 | 3.2 | 14.5 | 0.00 | 0.00 | 0.00 | 69 | 1007.1 |
| 20260902135647 | 20 | 266 | 4.8 | 14.5 | 0.00 | 0.00 | 0.00 | 69 | 1007.1 |
| 20260902135147 | 20 | 271 | 4.8 | 14.5 | 0.00 | 0.00 | 0.00 | 70 | 1007.3 |
| 20260902134645 | 20 | 268 | 3.2 | 16.1 | 0.00 | 0.00 | 0.00 | 70 | 1007.3 |
| 20260902134417 | 20 | 275 | 4.8 | 16.1 | 0.00 | 0.00 | 0.00 | 68 | 1007.3 |
| 20260902133647 | 20 | 286 | 4.8 | 20.9 | 0.00 | 0.00 | 0.00 | 68 | 1007.3 |
| 20260902133146 | 20 | 230 | 9.7 | 20.9 | 0.00 | 0.00 | 0.00 | 68 | 1007.4 |
| 20260902132646 | 20 | 261 | 8.0 | 16.1 | 0.00 | 0.00 | 0.00 | 69 | 1007.3 |
| 20260902132147 | 20 | 250 | 3.2 | 16.1 | 0.00 | 0.00 | 0.00 | 70 | 1007.4 |
| 20260902131647 | 20 | 262 | 6.4 | 16.1 | 0.00 | 0.00 | 0.00 | 69 | 1007.4 |
| 20260902131146 | 20 | 243 | 4.8 | 24.1 | 0.00 | 0.00 | 0.00 | 70 | 1007.4 |
| 20260902130646 | 20 | 274 | 4.8 | 24.1 | 0.00 | 0.00 | 0.00 | 70 | 1007.4 |
| 20260902130411 | 20 | 200 | 8.0 | 11.3 | 0.00 | 0.00 | 0.00 | 69 | 1007.5 |
| 20260902125907 | 20 | 264 | 6.4 | 14.5 | 0.00 | 0.00 | 0.00 | 70 | 1007.5 |
| 20260902125404 | 20 | 288 | 4.8 | 16.1 | 0.00 | 0.00 | 0.00 | 70 | 1007.5 |
| 20260902125137 | 20 | 254 | 4.8 | 16.1 | 0.00 | 0.00 | 0.00 | 70 | 1007.5 |
| 20260902124627 | 19 | 213 | 3.2 | 17.7 | 0.00 | 0.00 | 0.00 | 71 | 1007.6 |
| 20260902123646 | 19 | 269 | 8.0 | 17.7 | 0.00 | 0.00 | 0.00 | 71 | 1007.6 |
| 20260902123146 | 20 | 279 | 8.0 | 17.7 | 0.00 | 0.00 | 0.00 | 70 | 1007.7 |
| 20260902122645 | 20 | 353 | 6.4 | 17.7 | 0.00 | 0.00 | 0.00 | 70 | 1007.7 |
| 20260902122145 | 19 | 269 | 6.4 | 14.5 | 0.00 | 0.00 | 0.00 | 70 | 1007.7 |
| 20260902121908 | 19 | 264 | 6.4 | 16.1 | 0.00 | 0.00 | 0.00 | 71 | 1007.8 |
| 20260902121145 | 19 | 179 | 6.4 | 19.3 | 0.00 | 0.00 | 0.00 | 71 | 1007.8 |
| 20260902120645 | 19 | 275 | 11.3 | 19.3 | 0.00 | 0.00 | 0.00 | 69 | 1007.9 |